{"data":{"norad_id":45675,"intl_designator":"2020-035U","name":"STARLINK-1458","alt_names":[],"object_type":"PAYLOAD","status":"ACTIVE","operator":null,"country":"US","launch_date":"2020-06-04","launch_site_code":"AFETR","launch_vehicle":null,"mission":null,"orbit_class":"UNKNOWN","rcs_meters":null,"size_class":null,"mass_kg":null,"dimensions":null,"purposes":["comms"],"wikipedia_slug":null,"has_3d_model":false,"image_url":null,"decayed_at":null,"tle_current":{"epoch":"2026-09-20T04:08:40.905888Z","epoch_age_seconds":50291,"freshness":"FRESH","line1":"1 45675U 20035U   26263.17269567  .00073627  00000+0  44033-3 0  9990","line2":"2 45675  53.0381 188.6451 0005041  99.5031 260.6559 15.77201317349204","mean_motion":15.77201317,"eccentricity":0.0005041,"inclination_deg":53.0381,"raan_deg":188.6451,"arg_perigee_deg":99.5031,"mean_anomaly_deg":260.6559,"bstar":0.00044033,"rev_number":34920,"period_min":91.300963578894,"perigee_km":334.98857165976,"apogee_km":341.76015841799,"semimajor_km":6716.5113650389,"source":"CELESTRAK","updated_at":"2026-09-20T09:00:38.451581Z"}}}